owner,sensor,date,latitude,longitude,vertical_datum,sea_water_practical_salinity,qcFlag 
SCCF RECON,ioos:station:SCCF:18:1,2014-07-01T00:00:00Z,26.6955,-81.8138,1.59,1.98,1111122 
SCCF RECON,ioos:station:SCCF:18:1,2014-07-01T01:00:00Z,26.6955,-81.8138,1.58,1.94,1111122 
SCCF RECON,ioos:station:SCCF:18:1,2014-07-01T02:00:00Z,26.6955,-81.8138,1.54,1.98,1111122 
SCCF RECON,ioos:station:SCCF:18:1,2014-07-01T03:00:00Z,26.6955,-81.8138,1.53,1.95,1111122 
SCCF RECON,ioos:station:SCCF:18:1,2014-07-01T04:00:00Z,26.6955,-81.8138,1.5,1.89,1111122 
SCCF RECON,ioos:station:SCCF:18:1,2014-07-01T05:00:00Z,26.6955,-81.8138,1.46,1.91,1111122 
SCCF RECON,ioos:station:SCCF:18:1,2014-07-01T06:00:00Z,26.6955,-81.8138,1.42,1.94,1111122 
SCCF RECON,ioos:station:SCCF:18:1,2014-07-01T07:00:00Z,26.6955,-81.8138,1.38,1.88,1111122 
SCCF RECON,ioos:station:SCCF:18:1,2014-07-01T08:00:00Z,26.6955,-81.8138,1.332,1.89,1111122 
SCCF RECON,ioos:station:SCCF:18:1,2014-07-01T09:00:00Z,26.6955,-81.8138,1.34,2.18,1111122 
SCCF RECON,ioos:station:SCCF:18:1,2014-07-01T10:00:00Z,26.6955,-81.8138,1.35,2.21,1111122 
SCCF RECON,ioos:station:SCCF:18:1,2014-07-01T11:00:00Z,26.6955,-81.8138,1.38,2.13,1111122 
SCCF RECON,ioos:station:SCCF:18:1,2014-07-01T12:00:00Z,26.6955,-81.8138,1.41,2.3,1111122 
SCCF RECON,ioos:station:SCCF:18:1,2014-07-01T13:00:00Z,26.6955,-81.8138,1.45,2.06,1111122 
SCCF RECON,ioos:station:SCCF:18:1,2014-07-01T14:00:00Z,26.6955,-81.8138,1.48,2.02,1111122 
SCCF RECON,ioos:station:SCCF:18:1,2014-07-01T15:00:00Z,26.6955,-81.8138,1.5,1.97,1111122 
SCCF RECON,ioos:station:SCCF:18:1,2014-07-01T16:00:00Z,26.6955,-81.8138,1.502,1.82,1111122 
SCCF RECON,ioos:station:SCCF:18:1,2014-07-01T17:00:00Z,26.6955,-81.8138,1.48,1.88,1111122 
SCCF RECON,ioos:station:SCCF:18:1,2014-07-01T18:00:00Z,26.6955,-81.8138,1.46,2.07,1111122 
SCCF RECON,ioos:station:SCCF:18:1,2014-07-01T19:00:00Z,26.6955,-81.8138,1.478,2.03,1111122 
SCCF RECON,ioos:station:SCCF:18:1,2014-07-01T20:00:00Z,26.6955,-81.8138,1.513,2.5,1111122 
SCCF RECON,ioos:station:SCCF:18:1,2014-07-01T21:00:00Z,26.6955,-81.8138,1.56,2.36,1111122 
SCCF RECON,ioos:station:SCCF:18:1,2014-07-01T22:00:00Z,26.6955,-81.8138,1.586,2.44,1111122 
SCCF RECON,ioos:station:SCCF:18:1,2014-07-01T23:00:00Z,26.6955,-81.8138,1.61,2.43,1111122 
SCCF RECON,ioos:station:SCCF:18:1,2014-07-02T00:00:00Z,26.6955,-81.8138,1.63,2.29,1111122 
SCCF RECON,ioos:station:SCCF:18:1,2014-07-02T01:00:00Z,26.6955,-81.8138,1.64,2.43,1111122 
SCCF RECON,ioos:station:SCCF:18:1,2014-07-02T02:00:00Z,26.6955,-81.8138,1.63,2.17,1111122 
SCCF RECON,ioos:station:SCCF:18:1,2014-07-02T03:00:00Z,26.6955,-81.8138,1.61,2.05,1111122 
SCCF RECON,ioos:station:SCCF:18:1,2014-07-02T04:00:00Z,26.6955,-81.8138,1.6,1.91,1111122 
SCCF RECON,ioos:station:SCCF:18:1,2014-07-02T05:00:00Z,26.6955,-81.8138,1.59,1.84,1111122 
SCCF RECON,ioos:station:SCCF:18:1,2014-07-02T06:00:00Z,26.6955,-81.8138,1.55,1.82,1111122 
SCCF RECON,ioos:station:SCCF:18:1,2014-07-02T07:00:00Z,26.6955,-81.8138,1.51,1.79,1111122 
SCCF RECON,ioos:station:SCCF:18:1,2014-07-02T08:00:00Z,26.6955,-81.8138,1.48,1.86,1111122 
SCCF RECON,ioos:station:SCCF:18:1,2014-07-02T09:00:00Z,26.6955,-81.8138,1.443,2.24,1111122 
SCCF RECON,ioos:station:SCCF:18:1,2014-07-02T10:00:00Z,26.6955,-81.8138,1.45,2.15,1111122 
SCCF RECON,ioos:station:SCCF:18:1,2014-07-02T11:00:00Z,26.6955,-81.8138,1.46,2.09,1111122 
SCCF RECON,ioos:station:SCCF:18:1,2014-07-02T12:00:00Z,26.6955,-81.8138,1.49,2.17,1111122 
SCCF RECON,ioos:station:SCCF:18:1,2014-07-02T13:00:00Z,26.6955,-81.8138,1.518,2.15,1111122 
SCCF RECON,ioos:station:SCCF:18:1,2014-07-02T14:00:00Z,26.6955,-81.8138,1.56,2.17,1111122 
SCCF RECON,ioos:station:SCCF:18:1,2014-07-02T19:00:00Z,26.6955,-81.8138,0.958,2.13,1111122 
SCCF RECON,ioos:station:SCCF:18:1,2014-07-02T20:00:00Z,26.6955,-81.8138,1.194,2.14,1111122 
SCCF RECON,ioos:station:SCCF:18:1,2014-07-02T21:00:00Z,26.6955,-81.8138,1.33,2.17,1111122 
SCCF RECON,ioos:station:SCCF:18:1,2014-07-02T22:00:00Z,26.6955,-81.8138,1.429,2.2,1111122 
SCCF RECON,ioos:station:SCCF:18:1,2014-07-02T23:00:00Z,26.6955,-81.8138,1.49,2.2,1111122 
SCCF RECON,ioos:station:SCCF:18:1,2014-07-03T00:00:00Z,26.6955,-81.8138,1.56,2.43,1111122 
SCCF RECON,ioos:station:SCCF:18:1,2014-07-03T01:00:00Z,26.6955,-81.8138,1.64,2.3,1111122 
SCCF RECON,ioos:station:SCCF:18:1,2014-07-03T02:00:00Z,26.6955,-81.8138,1.68,2.09,1111122 
SCCF RECON,ioos:station:SCCF:18:1,2014-07-03T03:00:00Z,26.6955,-81.8138,1.68,1.9,1111122 
SCCF RECON,ioos:station:SCCF:18:1,2014-07-03T04:00:00Z,26.6955,-81.8138,1.65,1.86,1111122 
SCCF RECON,ioos:station:SCCF:18:1,2014-07-03T05:00:00Z,26.6955,-81.8138,1.64,1.79,1111122 
SCCF RECON,ioos:station:SCCF:18:1,2014-07-03T06:00:00Z,26.6955,-81.8138,1.61,1.73,1111122 
SCCF RECON,ioos:station:SCCF:18:1,2014-07-03T07:00:00Z,26.6955,-81.8138,1.55,1.71,1111122 
SCCF RECON,ioos:station:SCCF:18:1,2014-07-03T08:00:00Z,26.6955,-81.8138,1.49,1.74,1111122 
SCCF RECON,ioos:station:SCCF:18:1,2014-07-03T09:00:00Z,26.6955,-81.8138,1.47,1.88,1111122 
SCCF RECON,ioos:station:SCCF:18:1,2014-07-03T10:00:00Z,26.6955,-81.8138,1.47,2.11,1111122 
SCCF RECON,ioos:station:SCCF:18:1,2014-07-03T11:00:00Z,26.6955,-81.8138,1.512,2.05,1111122 
SCCF RECON,ioos:station:SCCF:18:1,2014-07-03T12:00:00Z,26.6955,-81.8138,1.568,2.39,1111122 
SCCF RECON,ioos:station:SCCF:18:1,2014-07-03T13:00:00Z,26.6955,-81.8138,1.61,2.16,1111122 
SCCF RECON,ioos:station:SCCF:18:1,2014-07-03T14:00:00Z,26.6955,-81.8138,1.667,2.28,1111122 
SCCF RECON,ioos:station:SCCF:18:1,2014-07-03T15:00:00Z,26.6955,-81.8138,1.72,1.95,1111122 
SCCF RECON,ioos:station:SCCF:18:1,2014-07-03T16:00:00Z,26.6955,-81.8138,1.72,1.94,1111122 
SCCF RECON,ioos:station:SCCF:18:1,2014-07-03T17:00:00Z,26.6955,-81.8138,1.69,1.86,1111122 
SCCF RECON,ioos:station:SCCF:18:1,2014-07-03T18:00:00Z,26.6955,-81.8138,1.68,1.86,1111122 
SCCF RECON,ioos:station:SCCF:18:1,2014-07-03T19:00:00Z,26.6955,-81.8138,1.65,2.11,1111122 
SCCF RECON,ioos:station:SCCF:18:1,2014-07-03T20:00:00Z,26.6955,-81.8138,1.62,1.97,1111122 
SCCF RECON,ioos:station:SCCF:18:1,2014-07-03T21:00:00Z,26.6955,-81.8138,1.65,2.15,1111122 
SCCF RECON,ioos:station:SCCF:18:1,2014-07-03T22:00:00Z,26.6955,-81.8138,1.66,2.18,1111122 
SCCF RECON,ioos:station:SCCF:18:1,2014-07-03T23:00:00Z,26.6955,-81.8138,1.67,2.37,1111122 
SCCF RECON,ioos:station:SCCF:18:1,2014-07-04T00:00:00Z,26.6955,-81.8138,1.7,2.45,1111122 
SCCF RECON,ioos:station:SCCF:18:1,2014-07-04T01:00:00Z,26.6955,-81.8138,1.715,2.59,1111122 
SCCF RECON,ioos:station:SCCF:18:1,2014-07-04T02:00:00Z,26.6955,-81.8138,1.73,2.35,1111122 
SCCF RECON,ioos:station:SCCF:18:1,2014-07-04T03:00:00Z,26.6955,-81.8138,1.72,2.09,1111122 
SCCF RECON,ioos:station:SCCF:18:1,2014-07-04T04:00:00Z,26.6955,-81.8138,1.7,1.97,1111122 
SCCF RECON,ioos:station:SCCF:18:1,2014-07-04T05:00:00Z,26.6955,-81.8138,1.67,1.94,1111122 
SCCF RECON,ioos:station:SCCF:18:1,2014-07-04T06:00:00Z,26.6955,-81.8138,1.64,1.77,1111122 
SCCF RECON,ioos:station:SCCF:18:1,2014-07-04T07:00:00Z,26.6955,-81.8138,1.63,1.69,1111122 
SCCF RECON,ioos:station:SCCF:18:1,2014-07-04T08:00:00Z,26.6955,-81.8138,1.58,1.69,1111122 
SCCF RECON,ioos:station:SCCF:18:1,2014-07-04T09:00:00Z,26.6955,-81.8138,1.53,1.79,1111122 
SCCF RECON,ioos:station:SCCF:18:1,2014-07-04T10:00:00Z,26.6955,-81.8138,1.49,1.96,1111122 
SCCF RECON,ioos:station:SCCF:18:1,2014-07-04T11:00:00Z,26.6955,-81.8138,1.5,1.89,1111122 
SCCF RECON,ioos:station:SCCF:18:1,2014-07-04T12:00:00Z,26.6955,-81.8138,1.54,2.02,1111122 
SCCF RECON,ioos:station:SCCF:18:1,2014-07-04T13:00:00Z,26.6955,-81.8138,1.57,1.99,1111122 
SCCF RECON,ioos:station:SCCF:18:1,2014-07-04T14:00:00Z,26.6955,-81.8138,1.61,2.11,1111122 
SCCF RECON,ioos:station:SCCF:18:1,2014-07-04T15:00:00Z,26.6955,-81.8138,1.65,1.94,1111122 
SCCF RECON,ioos:station:SCCF:18:1,2014-07-04T16:00:00Z,26.6955,-81.8138,1.69,1.92,1111122 
SCCF RECON,ioos:station:SCCF:18:1,2014-07-04T17:00:00Z,26.6955,-81.8138,1.72,1.81,1111122 
SCCF RECON,ioos:station:SCCF:18:1,2014-07-04T18:00:00Z,26.6955,-81.8138,1.68,1.94,1111122 
SCCF RECON,ioos:station:SCCF:18:1,2014-07-04T19:00:00Z,26.6955,-81.8138,1.63,1.87,1111122 
SCCF RECON,ioos:station:SCCF:18:1,2014-07-04T20:00:00Z,26.6955,-81.8138,1.6,2.06,1111122 
SCCF RECON,ioos:station:SCCF:18:1,2014-07-04T21:00:00Z,26.6955,-81.8138,1.58,1.8,1111122 
SCCF RECON,ioos:station:SCCF:18:1,2014-07-04T22:00:00Z,26.6955,-81.8138,1.598,1.88,1111122 
SCCF RECON,ioos:station:SCCF:18:1,2014-07-04T23:00:00Z,26.6955,-81.8138,1.59,1.9,1111122 
SCCF RECON,ioos:station:SCCF:18:1,2014-07-05T00:00:00Z,26.6955,-81.8138,1.57,2.03,1111122 
SCCF RECON,ioos:station:SCCF:18:1,2014-07-05T01:00:00Z,26.6955,-81.8138,1.58,1.91,1111122 
SCCF RECON,ioos:station:SCCF:18:1,2014-07-05T02:00:00Z,26.6955,-81.8138,1.59,1.87,1111122 
SCCF RECON,ioos:station:SCCF:18:1,2014-07-05T03:00:00Z,26.6955,-81.8138,1.59,1.87,1111122 
SCCF RECON,ioos:station:SCCF:18:1,2014-07-05T04:00:00Z,26.6955,-81.8138,1.58,1.77,1111122 
SCCF RECON,ioos:station:SCCF:18:1,2014-07-05T05:00:00Z,26.6955,-81.8138,1.56,1.7,1111122 
SCCF RECON,ioos:station:SCCF:18:1,2014-07-05T06:00:00Z,26.6955,-81.8138,1.54,1.64,1111122 
SCCF RECON,ioos:station:SCCF:18:1,2014-07-05T07:00:00Z,26.6955,-81.8138,1.53,1.6,1111122 
SCCF RECON,ioos:station:SCCF:18:1,2014-07-05T08:00:00Z,26.6955,-81.8138,1.49,1.56,1111122 
SCCF RECON,ioos:station:SCCF:18:1,2014-07-05T09:00:00Z,26.6955,-81.8138,1.46,1.6,1111122 
SCCF RECON,ioos:station:SCCF:18:1,2014-07-05T10:00:00Z,26.6955,-81.8138,1.39,1.75,1111122 
SCCF RECON,ioos:station:SCCF:18:1,2014-07-05T11:00:00Z,26.6955,-81.8138,1.38,1.74,1111122 
SCCF RECON,ioos:station:SCCF:18:1,2014-07-05T12:00:00Z,26.6955,-81.8138,1.425,1.77,1111122 
SCCF RECON,ioos:station:SCCF:18:1,2014-07-05T13:00:00Z,26.6955,-81.8138,1.45,2.09,1111122 
SCCF RECON,ioos:station:SCCF:18:1,2014-07-05T14:00:00Z,26.6955,-81.8138,1.48,2.12,1111122 
SCCF RECON,ioos:station:SCCF:18:1,2014-07-05T15:00:00Z,26.6955,-81.8138,1.559,2.04,1111122 
SCCF RECON,ioos:station:SCCF:18:1,2014-07-05T16:00:00Z,26.6955,-81.8138,1.61,2.15,1111122 
SCCF RECON,ioos:station:SCCF:18:1,2014-07-05T17:00:00Z,26.6955,-81.8138,1.66,1.85,1111122 
SCCF RECON,ioos:station:SCCF:18:1,2014-07-05T18:00:00Z,26.6955,-81.8138,1.68,1.65,1111122 
SCCF RECON,ioos:station:SCCF:18:1,2014-07-05T19:00:00Z,26.6955,-81.8138,1.65,1.59,1111122 
SCCF RECON,ioos:station:SCCF:18:1,2014-07-05T20:00:00Z,26.6955,-81.8138,1.63,1.6,1111122 
SCCF RECON,ioos:station:SCCF:18:1,2014-07-05T21:00:00Z,26.6955,-81.8138,1.61,1.6,1111122 
SCCF RECON,ioos:station:SCCF:18:1,2014-07-05T22:00:00Z,26.6955,-81.8138,1.57,1.58,1111122 
SCCF RECON,ioos:station:SCCF:18:1,2014-07-05T23:00:00Z,26.6955,-81.8138,1.54,1.61,1111122 
SCCF RECON,ioos:station:SCCF:18:1,2014-07-06T00:00:00Z,26.6955,-81.8138,1.49,1.74,1111122 
SCCF RECON,ioos:station:SCCF:18:1,2014-07-06T01:00:00Z,26.6955,-81.8138,1.482,1.82,1111122 
SCCF RECON,ioos:station:SCCF:18:1,2014-07-06T02:00:00Z,26.6955,-81.8138,1.51,1.75,1111122 
SCCF RECON,ioos:station:SCCF:18:1,2014-07-06T03:00:00Z,26.6955,-81.8138,1.54,1.76,1111122 
SCCF RECON,ioos:station:SCCF:18:1,2014-07-06T04:00:00Z,26.6955,-81.8138,1.56,1.82,1111122 
SCCF RECON,ioos:station:SCCF:18:1,2014-07-06T05:00:00Z,26.6955,-81.8138,1.57,1.75,1111122 
SCCF RECON,ioos:station:SCCF:18:1,2014-07-06T06:00:00Z,26.6955,-81.8138,1.569,1.57,1111122 
SCCF RECON,ioos:station:SCCF:18:1,2014-07-06T07:00:00Z,26.6955,-81.8138,1.55,1.57,1111122 
SCCF RECON,ioos:station:SCCF:18:1,2014-07-06T08:00:00Z,26.6955,-81.8138,1.53,1.59,1111122 
SCCF RECON,ioos:station:SCCF:18:1,2014-07-06T09:00:00Z,26.6955,-81.8138,1.51,1.59,1111122 
SCCF RECON,ioos:station:SCCF:18:1,2014-07-06T10:00:00Z,26.6955,-81.8138,1.49,1.58,1111122 
SCCF RECON,ioos:station:SCCF:18:1,2014-07-06T11:00:00Z,26.6955,-81.8138,1.45,1.91,1111122 
SCCF RECON,ioos:station:SCCF:18:1,2014-07-06T12:00:00Z,26.6955,-81.8138,1.426,1.74,1111122 
SCCF RECON,ioos:station:SCCF:18:1,2014-07-06T13:00:00Z,26.6955,-81.8138,1.46,1.76,1111122 
SCCF RECON,ioos:station:SCCF:18:1,2014-07-06T14:00:00Z,26.6955,-81.8138,1.5,1.97,1111122 
SCCF RECON,ioos:station:SCCF:18:1,2014-07-06T15:00:00Z,26.6955,-81.8138,1.55,1.9,1111122 
SCCF RECON,ioos:station:SCCF:18:1,2014-07-06T16:00:00Z,26.6955,-81.8138,1.594,2.12,1111122 
SCCF RECON,ioos:station:SCCF:18:1,2014-07-06T17:00:00Z,26.6955,-81.8138,1.65,2.05,1111122 
SCCF RECON,ioos:station:SCCF:18:1,2014-07-06T18:00:00Z,26.6955,-81.8138,1.69,1.81,1111122 
SCCF RECON,ioos:station:SCCF:18:1,2014-07-06T19:00:00Z,26.6955,-81.8138,1.71,1.74,1111122 
SCCF RECON,ioos:station:SCCF:18:1,2014-07-06T20:00:00Z,26.6955,-81.8138,1.65,1.89,1111122 
SCCF RECON,ioos:station:SCCF:18:1,2014-07-06T21:00:00Z,26.6955,-81.8138,1.619,1.7,1111122 
SCCF RECON,ioos:station:SCCF:18:1,2014-07-06T22:00:00Z,26.6955,-81.8138,1.6,1.61,1111122 
SCCF RECON,ioos:station:SCCF:18:1,2014-07-06T23:00:00Z,26.6955,-81.8138,1.54,1.61,1111122 
SCCF RECON,ioos:station:SCCF:18:1,2014-07-07T00:00:00Z,26.6955,-81.8138,1.51,1.62,1111122 
SCCF RECON,ioos:station:SCCF:18:1,2014-07-07T01:00:00Z,26.6955,-81.8138,1.437,1.81,1111122 
SCCF RECON,ioos:station:SCCF:18:1,2014-07-07T02:00:00Z,26.6955,-81.8138,1.44,1.8,1111122 
SCCF RECON,ioos:station:SCCF:18:1,2014-07-07T03:00:00Z,26.6955,-81.8138,1.45,1.75,1111122 
SCCF RECON,ioos:station:SCCF:18:1,2014-07-07T04:00:00Z,26.6955,-81.8138,1.46,1.9,1111122 
SCCF RECON,ioos:station:SCCF:18:1,2014-07-07T05:00:00Z,26.6955,-81.8138,1.46,1.9,1111122 
SCCF RECON,ioos:station:SCCF:18:1,2014-07-07T06:00:00Z,26.6955,-81.8138,1.5,1.79,1111122 
SCCF RECON,ioos:station:SCCF:18:1,2014-07-07T07:00:00Z,26.6955,-81.8138,1.5,1.59,1111122 
SCCF RECON,ioos:station:SCCF:18:1,2014-07-07T08:00:00Z,26.6955,-81.8138,1.52,1.61,1111122 
SCCF RECON,ioos:station:SCCF:18:1,2014-07-07T09:00:00Z,26.6955,-81.8138,1.52,1.63,1111122 
SCCF RECON,ioos:station:SCCF:18:1,2014-07-07T10:00:00Z,26.6955,-81.8138,1.493,1.63,1111122 
SCCF RECON,ioos:station:SCCF:18:1,2014-07-07T11:00:00Z,26.6955,-81.8138,1.47,1.77,1111122 
SCCF RECON,ioos:station:SCCF:18:1,2014-07-07T12:00:00Z,26.6955,-81.8138,1.427,1.99,1111122 
SCCF RECON,ioos:station:SCCF:18:1,2014-07-07T13:00:00Z,26.6955,-81.8138,1.434,1.81,1111122 
SCCF RECON,ioos:station:SCCF:18:1,2014-07-07T14:00:00Z,26.6955,-81.8138,1.49,2.14,1111122 
SCCF RECON,ioos:station:SCCF:18:1,2014-07-07T15:00:00Z,26.6955,-81.8138,1.525,2.1,1111122 
SCCF RECON,ioos:station:SCCF:18:1,2014-07-07T16:00:00Z,26.6955,-81.8138,1.59,2.25,1111122 
SCCF RECON,ioos:station:SCCF:18:1,2014-07-07T17:00:00Z,26.6955,-81.8138,1.65,1.96,1111122 
SCCF RECON,ioos:station:SCCF:18:1,2014-07-07T18:00:00Z,26.6955,-81.8138,1.7,1.85,1111122 
SCCF RECON,ioos:station:SCCF:18:1,2014-07-07T19:00:00Z,26.6955,-81.8138,1.72,1.74,1111122 
SCCF RECON,ioos:station:SCCF:18:1,2014-07-07T20:00:00Z,26.6955,-81.8138,1.68,1.69,1111122 
SCCF RECON,ioos:station:SCCF:18:1,2014-07-07T21:00:00Z,26.6955,-81.8138,1.65,1.64,1111122 
SCCF RECON,ioos:station:SCCF:18:1,2014-07-07T22:00:00Z,26.6955,-81.8138,1.59,1.61,1111122 
SCCF RECON,ioos:station:SCCF:18:1,2014-07-07T23:00:00Z,26.6955,-81.8138,1.57,1.61,1111122 
SCCF RECON,ioos:station:SCCF:18:1,2014-07-08T00:00:00Z,26.6955,-81.8138,1.53,1.65,1111122 
SCCF RECON,ioos:station:SCCF:18:1,2014-07-08T01:00:00Z,26.6955,-81.8138,1.49,1.7,1111122 
SCCF RECON,ioos:station:SCCF:18:1,2014-07-08T02:00:00Z,26.6955,-81.8138,1.44,1.74,1111122 
SCCF RECON,ioos:station:SCCF:18:1,2014-07-08T03:00:00Z,26.6955,-81.8138,1.4,1.97,1111122 
SCCF RECON,ioos:station:SCCF:18:1,2014-07-08T04:00:00Z,26.6955,-81.8138,1.4,1.89,1111122 
SCCF RECON,ioos:station:SCCF:18:1,2014-07-08T05:00:00Z,26.6955,-81.8138,1.45,1.85,1111122 
SCCF RECON,ioos:station:SCCF:18:1,2014-07-08T06:00:00Z,26.6955,-81.8138,1.47,1.84,1111122 
SCCF RECON,ioos:station:SCCF:18:1,2014-07-08T07:00:00Z,26.6955,-81.8138,1.48,1.89,1111122 
SCCF RECON,ioos:station:SCCF:18:1,2014-07-08T08:00:00Z,26.6955,-81.8138,1.5,1.74,1111122 
SCCF RECON,ioos:station:SCCF:18:1,2014-07-08T09:00:00Z,26.6955,-81.8138,1.49,1.68,1111122 
SCCF RECON,ioos:station:SCCF:18:1,2014-07-08T10:00:00Z,26.6955,-81.8138,1.5,1.62,1111122 
SCCF RECON,ioos:station:SCCF:18:1,2014-07-08T11:00:00Z,26.6955,-81.8138,1.5,1.64,1111122 
SCCF RECON,ioos:station:SCCF:18:1,2014-07-08T12:00:00Z,26.6955,-81.8138,1.48,1.68,1111122 
SCCF RECON,ioos:station:SCCF:18:1,2014-07-08T13:00:00Z,26.6955,-81.8138,1.47,1.98,1111122 
SCCF RECON,ioos:station:SCCF:18:1,2014-07-08T14:00:00Z,26.6955,-81.8138,1.499,1.7,1111122 
SCCF RECON,ioos:station:SCCF:18:1,2014-07-08T15:00:00Z,26.6955,-81.8138,1.54,2.21,1111122 
SCCF RECON,ioos:station:SCCF:18:1,2014-07-08T16:00:00Z,26.6955,-81.8138,1.58,2.35,1111122 
SCCF RECON,ioos:station:SCCF:18:1,2014-07-08T17:00:00Z,26.6955,-81.8138,1.64,2.37,1111122 
SCCF RECON,ioos:station:SCCF:18:1,2014-07-08T18:00:00Z,26.6955,-81.8138,1.72,2.14,1111122 
SCCF RECON,ioos:station:SCCF:18:1,2014-07-08T19:00:00Z,26.6955,-81.8138,1.75,1.94,1111122 
SCCF RECON,ioos:station:SCCF:18:1,2014-07-08T20:00:00Z,26.6955,-81.8138,1.75,1.76,1111122 
SCCF RECON,ioos:station:SCCF:18:1,2014-07-08T21:00:00Z,26.6955,-81.8138,1.75,1.75,1111122 
SCCF RECON,ioos:station:SCCF:18:1,2014-07-08T22:00:00Z,26.6955,-81.8138,1.7,1.64,1111122 
SCCF RECON,ioos:station:SCCF:18:1,2014-07-08T23:00:00Z,26.6955,-81.8138,1.65,1.66,1111122 
SCCF RECON,ioos:station:SCCF:18:1,2014-07-09T00:00:00Z,26.6955,-81.8138,1.56,1.66,1111122 
SCCF RECON,ioos:station:SCCF:18:1,2014-07-09T01:00:00Z,26.6955,-81.8138,1.5,1.58,1111122 
SCCF RECON,ioos:station:SCCF:18:1,2014-07-09T02:00:00Z,26.6955,-81.8138,1.459,1.58,1111122 
SCCF RECON,ioos:station:SCCF:18:1,2014-07-09T03:00:00Z,26.6955,-81.8138,1.431,1.57,1111122 
SCCF RECON,ioos:station:SCCF:18:1,2014-07-09T04:00:00Z,26.6955,-81.8138,1.43,1.6,1111122 
SCCF RECON,ioos:station:SCCF:18:1,2014-07-09T05:00:00Z,26.6955,-81.8138,1.44,1.81,1111122 
SCCF RECON,ioos:station:SCCF:18:1,2014-07-09T06:00:00Z,26.6955,-81.8138,1.46,1.65,1111122 
SCCF RECON,ioos:station:SCCF:18:1,2014-07-09T07:00:00Z,26.6955,-81.8138,1.5,1.72,1111122 
SCCF RECON,ioos:station:SCCF:18:1,2014-07-09T08:00:00Z,26.6955,-81.8138,1.531,1.65,1111122 
SCCF RECON,ioos:station:SCCF:18:1,2014-07-09T09:00:00Z,26.6955,-81.8138,1.548,1.49,1111122 
SCCF RECON,ioos:station:SCCF:18:1,2014-07-09T10:00:00Z,26.6955,-81.8138,1.52,1.52,1111122 
SCCF RECON,ioos:station:SCCF:18:1,2014-07-09T11:00:00Z,26.6955,-81.8138,1.51,1.49,1111122 
SCCF RECON,ioos:station:SCCF:18:1,2014-07-09T12:00:00Z,26.6955,-81.8138,1.5,1.43,1111122 
SCCF RECON,ioos:station:SCCF:18:1,2014-07-09T13:00:00Z,26.6955,-81.8138,1.52,1.56,1111122 
SCCF RECON,ioos:station:SCCF:18:1,2014-07-09T14:00:00Z,26.6955,-81.8138,1.55,1.68,1111122 
SCCF RECON,ioos:station:SCCF:18:1,2014-07-09T15:00:00Z,26.6955,-81.8138,1.59,1.68,1111122 
SCCF RECON,ioos:station:SCCF:18:1,2014-07-09T16:00:00Z,26.6955,-81.8138,1.64,1.72,1111122 
SCCF RECON,ioos:station:SCCF:18:1,2014-07-09T17:00:00Z,26.6955,-81.8138,1.71,1.91,1111122 
SCCF RECON,ioos:station:SCCF:18:1,2014-07-09T18:00:00Z,26.6955,-81.8138,1.76,2.0,1111122 
SCCF RECON,ioos:station:SCCF:18:1,2014-07-09T19:00:00Z,26.6955,-81.8138,1.79,1.79,1111122 
SCCF RECON,ioos:station:SCCF:18:1,2014-07-09T20:00:00Z,26.6955,-81.8138,1.76,1.67,1111122 
SCCF RECON,ioos:station:SCCF:18:1,2014-07-09T21:00:00Z,26.6955,-81.8138,1.72,1.56,1111122 
SCCF RECON,ioos:station:SCCF:18:1,2014-07-09T22:00:00Z,26.6955,-81.8138,1.69,1.42,1111122 
SCCF RECON,ioos:station:SCCF:18:1,2014-07-09T23:00:00Z,26.6955,-81.8138,1.66,1.42,1111122 
SCCF RECON,ioos:station:SCCF:18:1,2014-07-10T00:00:00Z,26.6955,-81.8138,1.6,1.41,1111122 
SCCF RECON,ioos:station:SCCF:18:1,2014-07-10T01:00:00Z,26.6955,-81.8138,1.55,1.42,1111122 
SCCF RECON,ioos:station:SCCF:18:1,2014-07-10T02:00:00Z,26.6955,-81.8138,1.48,1.27,1111122 
SCCF RECON,ioos:station:SCCF:18:1,2014-07-10T03:00:00Z,26.6955,-81.8138,1.45,1.36,1111122 
SCCF RECON,ioos:station:SCCF:18:1,2014-07-10T04:00:00Z,26.6955,-81.8138,1.4,1.31,1111122 
SCCF RECON,ioos:station:SCCF:18:1,2014-07-10T05:00:00Z,26.6955,-81.8138,1.42,1.47,1111122 
SCCF RECON,ioos:station:SCCF:18:1,2014-07-10T06:00:00Z,26.6955,-81.8138,1.44,1.45,1111122 
SCCF RECON,ioos:station:SCCF:18:1,2014-07-10T07:00:00Z,26.6955,-81.8138,1.47,1.43,1111122 
SCCF RECON,ioos:station:SCCF:18:1,2014-07-10T08:00:00Z,26.6955,-81.8138,1.51,1.41,1111122 
SCCF RECON,ioos:station:SCCF:18:1,2014-07-10T09:00:00Z,26.6955,-81.8138,1.54,1.35,1111122 
SCCF RECON,ioos:station:SCCF:18:1,2014-07-10T10:00:00Z,26.6955,-81.8138,1.55,1.33,1111122 
SCCF RECON,ioos:station:SCCF:18:1,2014-07-10T11:00:00Z,26.6955,-81.8138,1.54,1.33,1111122 
SCCF RECON,ioos:station:SCCF:18:1,2014-07-10T12:00:00Z,26.6955,-81.8138,1.51,1.33,1111122 
SCCF RECON,ioos:station:SCCF:18:1,2014-07-10T13:00:00Z,26.6955,-81.8138,1.51,1.3,1111122 
SCCF RECON,ioos:station:SCCF:18:1,2014-07-10T14:00:00Z,26.6955,-81.8138,1.53,1.36,1111122 
SCCF RECON,ioos:station:SCCF:18:1,2014-07-10T15:00:00Z,26.6955,-81.8138,1.58,1.65,1111122 
SCCF RECON,ioos:station:SCCF:18:1,2014-07-10T16:00:00Z,26.6955,-81.8138,1.62,1.46,1111122 
SCCF RECON,ioos:station:SCCF:18:1,2014-07-10T17:00:00Z,26.6955,-81.8138,1.67,1.61,1111122 
SCCF RECON,ioos:station:SCCF:18:1,2014-07-10T18:00:00Z,26.6955,-81.8138,1.74,1.9,1111122 
SCCF RECON,ioos:station:SCCF:18:1,2014-07-10T19:00:00Z,26.6955,-81.8138,1.77,1.68,1111122 
SCCF RECON,ioos:station:SCCF:18:1,2014-07-10T20:00:00Z,26.6955,-81.8138,1.8,1.64,1111122 
SCCF RECON,ioos:station:SCCF:18:1,2014-07-10T21:00:00Z,26.6955,-81.8138,1.78,1.4,1111122 
SCCF RECON,ioos:station:SCCF:18:1,2014-07-10T22:00:00Z,26.6955,-81.8138,1.75,1.4,1111122 
SCCF RECON,ioos:station:SCCF:18:1,2014-07-10T23:00:00Z,26.6955,-81.8138,1.72,1.38,1111122 
SCCF RECON,ioos:station:SCCF:18:1,2014-07-11T00:00:00Z,26.6955,-81.8138,1.66,1.29,1111122 
SCCF RECON,ioos:station:SCCF:18:1,2014-07-11T01:00:00Z,26.6955,-81.8138,1.6,1.3,1111122 
SCCF RECON,ioos:station:SCCF:18:1,2014-07-11T02:00:00Z,26.6955,-81.8138,1.55,1.24,1111122 
SCCF RECON,ioos:station:SCCF:18:1,2014-07-11T03:00:00Z,26.6955,-81.8138,1.508,1.2,1111122 
SCCF RECON,ioos:station:SCCF:18:1,2014-07-11T04:00:00Z,26.6955,-81.8138,1.46,1.17,1111122 
SCCF RECON,ioos:station:SCCF:18:1,2014-07-11T05:00:00Z,26.6955,-81.8138,1.44,1.15,1111122 
SCCF RECON,ioos:station:SCCF:18:1,2014-07-11T06:00:00Z,26.6955,-81.8138,1.42,1.3,1111122 
SCCF RECON,ioos:station:SCCF:18:1,2014-07-11T07:00:00Z,26.6955,-81.8138,1.43,1.23,1111122 
SCCF RECON,ioos:station:SCCF:18:1,2014-07-11T08:00:00Z,26.6955,-81.8138,1.45,1.25,1111122 
SCCF RECON,ioos:station:SCCF:18:1,2014-07-11T09:00:00Z,26.6955,-81.8138,1.49,1.2,1111122 
SCCF RECON,ioos:station:SCCF:18:1,2014-07-11T10:00:00Z,26.6955,-81.8138,1.52,1.19,1111122 
SCCF RECON,ioos:station:SCCF:18:1,2014-07-11T11:00:00Z,26.6955,-81.8138,1.512,1.12,1111122 
SCCF RECON,ioos:station:SCCF:18:1,2014-07-11T12:00:00Z,26.6955,-81.8138,1.5,1.12,1111122 
SCCF RECON,ioos:station:SCCF:18:1,2014-07-11T13:00:00Z,26.6955,-81.8138,1.49,1.1,1111122 
SCCF RECON,ioos:station:SCCF:18:1,2014-07-11T14:00:00Z,26.6955,-81.8138,1.5,1.05,1111122 
SCCF RECON,ioos:station:SCCF:18:1,2014-07-11T15:00:00Z,26.6955,-81.8138,1.51,1.48,1111122 
SCCF RECON,ioos:station:SCCF:18:1,2014-07-11T16:00:00Z,26.6955,-81.8138,1.55,1.34,1111122 
SCCF RECON,ioos:station:SCCF:18:1,2014-07-11T17:00:00Z,26.6955,-81.8138,1.58,1.41,1111122 
SCCF RECON,ioos:station:SCCF:18:1,2014-07-11T18:00:00Z,26.6955,-81.8138,1.647,1.43,1111122 
SCCF RECON,ioos:station:SCCF:18:1,2014-07-11T19:00:00Z,26.6955,-81.8138,1.69,1.49,1111122 
SCCF RECON,ioos:station:SCCF:18:1,2014-07-11T20:00:00Z,26.6955,-81.8138,1.73,1.51,1111122 
SCCF RECON,ioos:station:SCCF:18:1,2014-07-11T21:00:00Z,26.6955,-81.8138,1.73,1.35,1111122 
SCCF RECON,ioos:station:SCCF:18:1,2014-07-11T22:00:00Z,26.6955,-81.8138,1.72,1.09,1111122 
SCCF RECON,ioos:station:SCCF:18:1,2014-07-11T23:00:00Z,26.6955,-81.8138,1.69,1.17,1111122 
SCCF RECON,ioos:station:SCCF:18:1,2014-07-12T00:00:00Z,26.6955,-81.8138,1.67,1.14,1111122 
SCCF RECON,ioos:station:SCCF:18:1,2014-07-12T01:00:00Z,26.6955,-81.8138,1.62,1.1,1111122 
SCCF RECON,ioos:station:SCCF:18:1,2014-07-12T02:00:00Z,26.6955,-81.8138,1.57,1.09,1111122 